STARLINK-38039, 69719

Orbit data source: Space-Track

STARLINK-38039, 69719 is a payload satellite owned by SpaceX/Seattle (US) in SSO that was launched on Sun, 28 Jun 2026 UTC via an FALCON 9 launch vehicle from the Air Force Western Test Range (AFWTR). Payload-class satellites include a variety of spacecraft equipped with specific instruments for various scientific and technological missions. These include communications satellites like Starlink; space stations such as the ISS; scientific satellites like the Hubble; Earth observation satellites from companies like Planet Labs, Umbra, and HawkEye 360; GPS; miniature CubeSats for education and research; and military/defense satellites.

Loading next visibility...
Identifier
69719, 2026-147R
Orbit
SSO
Country
Flag of USUS
Related business
Manufacturer
SpaceX/Seattle
Mission
Operational spacecraft
Bus & Motor
STARLINK V2MO, Unknown motor
Mass
575 kg wet, ~530 kg dry
Launch date (UTC)
2026-06-28 (2 weeks ago)
Launch vehicle
FALCON 9
Launch site
Air Force Western Test Range (AFWTR)
Object type
Payload
Rocket body
Debris
Shape & HBR
Unknown shape, 17.7 m
Radar Cross Section
Large (>1 m²)

Expand to show TLE details & history
Last TLE update: 2 days ago

TLE from 2 days ago
0 STARLINK-38039
1 69719U 26147R   26191.53689243  .00345258  00000-0  17183-2 0  9990
2 69719  97.2855 227.6808 0001294 335.4308  24.6899 15.81001041  3120
Epoch: 2026-07-10T12:53Z
TLE epoch observation values (Epoch: 2026-07-10T12:53:07.505Z)
Latitude
-0°
Longitude
105.93648°
Altitude
329.996 km
Speed
7.711 km/s
True Right ascension
15h 10m 43s
True Declination
0° 00' 00"
Sunlit
Object was in full shadow at epoch
Visualization orbit readout
Latitude
Unknown
Longitude
Unknown
Altitude
Unknown
Speed
Unknown
Apparent Right ascension
Unknown
Apparent Declination
Unknown
Sunlit
N/A
Visualization observer readout
Local Sidereal Time
21:41:18
Azimuth
Unknown
Elevation
Unknown
Doppler factor
Unknown
Orbital elements
Apogee altitude
325.356 km
Perigee altitude
323.621 km
Semi-major axis
6,702.625 km
Eccentricity
0.00013
Inclination
97.2855°
RAAN
227.6808°
Arg. of periapsis
335.4308°
True anomaly
24.69609°
Mean anomaly
24.6899°
Eccentric anomaly
24.693°
Mean motion
3.95527 °/min
Orbital period
91.02 mins
BSTAR
0.0017183
Loading maneuver chart data...
Computing Atmospheric mass density...
Loading historical data...
Loading historical data...
Loading historical data...
Loading historical data...
Loading historical data...
Loading historical data...
Loading historical data...

Documentation

Showing up to 5 results
|